Time,TemperatureF,DewpointF,PressureIn,WindDirection,WindDirectionDegrees,WindSpeedMPH,WindSpeedGustMPH,Humidity,HourlyPrecipIn,Conditions,Clouds,dailyrainin,SoftwareType,DateUTC
2013-03-06 00:00:00,43.9,43.6,29.42,SE,135,3.2,-999.0,99,-99.99,,,0.00,Acu-Link.com,2013-03-06 05:00:00,
2013-03-06 00:16:00,43.9,43.6,29.40,SSE,157,4.7,-999.0,99,-99.99,,,0.00,Acu-Link.com,2013-03-06 05:16:00,
2013-03-06 00:31:00,43.9,43.6,29.40,ESE,112,2.7,-999.0,99,-99.99,,,0.00,Acu-Link.com,2013-03-06 05:31:00,
2013-03-06 00:46:00,43.9,43.6,29.39,ESE,112,0.0,-999.0,99,-99.99,,,0.00,Acu-Link.com,2013-03-06 05:46:00,
2013-03-06 01:12:00,44.2,43.9,29.38,ESE,112,2.2,-999.0,99,-99.99,,,0.00,Acu-Link.com,2013-03-06 06:12:00,
2013-03-06 01:27:00,44.4,44.1,29.37,ESE,112,0.0,-999.0,99,-99.99,,,0.00,Acu-Link.com,2013-03-06 06:27:00,
2013-03-06 01:42:00,45.0,44.7,29.38,SSW,202,3.2,-999.0,99,-99.99,,,0.00,Acu-Link.com,2013-03-06 06:42:00,
2013-03-06 01:57:00,45.0,44.7,29.37,WSW,247,2.7,-999.0,99,-99.99,,,0.00,Acu-Link.com,2013-03-06 06:57:00,
2013-03-06 02:13:00,44.8,44.5,29.37,WSW,247,0.0,-999.0,99,-99.99,,,0.00,Acu-Link.com,2013-03-06 07:13:00,
2013-03-06 02:28:00,44.4,44.1,29.38,SSW,202,3.2,-999.0,99,-99.99,,,0.00,Acu-Link.com,2013-03-06 07:28:00,
2013-03-06 02:43:00,43.3,43.0,29.38,West,270,7.3,-999.0,99,-99.99,,,0.01,Acu-Link.com,2013-03-06 07:43:00,
2013-03-06 02:58:00,43.0,42.7,29.38,West,270,2.7,-999.0,99,-99.99,,,0.01,Acu-Link.com,2013-03-06 07:58:00,
2013-03-06 03:13:00,42.3,42.0,29.39,South,180,5.3,-999.0,99,-99.99,,,0.01,Acu-Link.com,2013-03-06 08:13:00,
2013-03-06 03:29:00,41.7,41.4,29.39,WSW,247,4.7,-999.0,99,-99.99,,,0.01,Acu-Link.com,2013-03-06 08:29:00,
2013-03-06 03:44:00,41.2,40.9,29.40,NNW,337,2.7,-999.0,99,-99.99,,,0.01,Acu-Link.com,2013-03-06 08:44:00,
2013-03-06 03:59:00,41.0,40.7,29.41,West,270,4.2,-999.0,99,-99.99,,,0.02,Acu-Link.com,2013-03-06 08:59:00,
2013-03-06 04:23:00,40.8,40.5,29.41,SW,225,2.2,-999.0,99,-99.99,,,0.02,Acu-Link.com,2013-03-06 09:23:00,
2013-03-06 04:38:00,40.3,39.8,29.42,WSW,247,6.8,-999.0,98,-99.99,,,0.02,Acu-Link.com,2013-03-06 09:38:00,
2013-03-06 04:53:00,39.2,38.2,29.44,SSE,157,6.8,-999.0,96,-99.99,,,0.02,Acu-Link.com,2013-03-06 09:53:00,
2013-03-06 05:08:00,38.7,37.9,29.44,SSW,202,3.7,-999.0,97,-99.99,,,0.02,Acu-Link.com,2013-03-06 10:08:00,
2013-03-06 05:23:00,38.1,37.3,29.45,SE,135,4.7,-999.0,97,-99.99,,,0.02,Acu-Link.com,2013-03-06 10:23:00,
2013-03-06 05:38:00,37.8,36.8,29.45,East,90,5.3,-999.0,96,-99.99,,,0.02,Acu-Link.com,2013-03-06 10:38:00,
2013-03-06 05:53:00,37.6,36.6,29.46,SSE,157,4.7,-999.0,96,-99.99,,,0.02,Acu-Link.com,2013-03-06 10:53:00,
2013-03-06 06:08:00,37.6,36.3,29.47,SW,225,10.9,-999.0,95,-99.99,,,0.02,Acu-Link.com,2013-03-06 11:08:00,
2013-03-06 06:23:00,37.6,36.3,29.48,SW,225,4.2,-999.0,95,-99.99,,,0.02,Acu-Link.com,2013-03-06 11:23:00,
2013-03-06 06:39:00,37.2,35.9,29.47,WSW,247,2.7,-999.0,95,-99.99,,,0.02,Acu-Link.com,2013-03-06 11:39:00,
2013-03-06 06:54:00,37.2,36.2,29.47,SW,225,1.7,-999.0,96,-99.99,,,0.02,Acu-Link.com,2013-03-06 11:54:00,
2013-03-06 07:09:00,37.2,36.4,29.48,WSW,247,1.7,-999.0,97,-99.99,,,0.02,Acu-Link.com,2013-03-06 12:09:00,
2013-03-06 07:24:00,37.4,36.6,29.49,East,90,1.1,-999.0,97,-99.99,,,0.02,Acu-Link.com,2013-03-06 12:24:00,
2013-03-06 07:39:00,37.8,36.0,29.49,SW,225,6.8,-999.0,93,-99.99,,,0.02,Acu-Link.com,2013-03-06 12:39:00,
2013-03-06 07:55:00,38.1,33.1,29.50,West,270,5.3,-999.0,82,-99.99,,,0.02,Acu-Link.com,2013-03-06 12:55:00,
2013-03-06 08:10:00,38.5,31.6,29.51,SSW,202,7.3,-999.0,76,-99.99,,,0.02,Acu-Link.com,2013-03-06 13:10:00,
2013-03-06 08:25:00,38.1,30.9,29.51,SW,225,4.7,-999.0,75,-99.99,,,0.02,Acu-Link.com,2013-03-06 13:25:00,
2013-03-06 08:40:00,39.7,31.8,29.52,NNW,337,7.3,-999.0,73,-99.99,,,0.02,Acu-Link.com,2013-03-06 13:40:00,
2013-03-06 08:55:00,39.7,31.1,29.52,South,180,3.7,-999.0,71,-99.99,,,0.02,Acu-Link.com,2013-03-06 13:55:00,
2013-03-06 09:10:00,41.0,31.3,29.51,WSW,247,4.7,-999.0,68,-99.99,,,0.02,Acu-Link.com,2013-03-06 14:10:00,
2013-03-06 09:26:00,40.8,29.6,29.51,South,180,5.8,-999.0,64,-99.99,,,0.02,Acu-Link.com,2013-03-06 14:26:00,
2013-03-06 09:41:00,41.9,29.4,29.51,SSE,157,6.8,-999.0,61,-99.99,,,0.02,Acu-Link.com,2013-03-06 14:41:00,
2013-03-06 09:56:00,41.7,28.4,29.52,South,180,7.8,-999.0,59,-99.99,,,0.02,Acu-Link.com,2013-03-06 14:56:00,
2013-03-06 10:11:00,42.4,27.4,29.52,South,180,13.0,-999.0,55,-99.99,,,0.02,Acu-Link.com,2013-03-06 15:11:00,
2013-03-06 10:26:00,41.9,26.9,29.52,West,270,10.4,-999.0,55,-99.99,,,0.02,Acu-Link.com,2013-03-06 15:26:00,
2013-03-06 10:41:00,42.1,27.5,29.53,South,180,15.5,-999.0,56,-99.99,,,0.02,Acu-Link.com,2013-03-06 15:41:00,
2013-03-06 10:56:00,42.1,28.0,29.53,SSE,157,13.0,-999.0,57,-99.99,,,0.02,Acu-Link.com,2013-03-06 15:56:00,
2013-03-06 11:11:00,42.4,28.3,29.54,SE,135,12.5,-999.0,57,-99.99,,,0.02,Acu-Link.com,2013-03-06 16:11:00,
2013-03-06 11:26:00,43.2,27.7,29.54,SW,225,7.8,-999.0,54,-99.99,,,0.02,Acu-Link.com,2013-03-06 16:26:00,
2013-03-06 11:42:00,43.0,27.5,29.55,SSE,157,8.3,-999.0,54,-99.99,,,0.02,Acu-Link.com,2013-03-06 16:42:00,
2013-03-06 11:57:00,42.1,28.4,29.55,WNW,292,17.6,-999.0,58,-99.99,,,0.02,Acu-Link.com,2013-03-06 16:57:00,
2013-03-06 12:12:00,42.6,27.6,29.55,SSE,157,11.9,-999.0,55,-99.99,,,0.02,Acu-Link.com,2013-03-06 17:12:00,
2013-03-06 12:27:00,43.3,27.3,29.54,WSW,247,4.2,-999.0,53,-99.99,,,0.02,Acu-Link.com,2013-03-06 17:27:00,
2013-03-06 12:42:00,43.9,27.4,29.55,South,180,10.4,-999.0,52,-99.99,,,0.02,Acu-Link.com,2013-03-06 17:42:00,
2013-03-06 12:57:00,43.9,27.9,29.55,SSW,202,5.3,-999.0,53,-99.99,,,0.02,Acu-Link.com,2013-03-06 17:57:00,
2013-03-06 13:12:00,44.2,27.7,29.55,SSW,202,3.7,-999.0,52,-99.99,,,0.02,Acu-Link.com,2013-03-06 18:12:00,
2013-03-06 13:27:00,44.8,27.8,29.56,SW,225,10.9,-999.0,51,-99.99,,,0.02,Acu-Link.com,2013-03-06 18:27:00,
2013-03-06 13:42:00,45.0,28.0,29.56,South,180,10.4,-999.0,51,-99.99,,,0.02,Acu-Link.com,2013-03-06 18:42:00,
2013-03-06 13:57:00,45.3,28.7,29.57,East,90,8.9,-999.0,52,-99.99,,,0.02,Acu-Link.com,2013-03-06 18:57:00,
2013-03-06 14:12:00,45.9,29.7,29.58,SSE,157,10.4,-999.0,53,-99.99,,,0.02,Acu-Link.com,2013-03-06 19:12:00,
2013-03-06 14:27:00,46.4,30.2,29.58,SSE,157,10.4,-999.0,53,-99.99,,,0.02,Acu-Link.com,2013-03-06 19:27:00,
2013-03-06 14:42:00,46.8,30.6,29.58,WSW,247,8.3,-999.0,53,-99.99,,,0.02,Acu-Link.com,2013-03-06 19:42:00,
2013-03-06 14:58:00,46.6,29.9,29.59,SE,135,12.5,-999.0,52,-99.99,,,0.02,Acu-Link.com,2013-03-06 19:58:00,
2013-03-06 15:13:00,46.9,30.2,29.60,SSE,157,7.8,-999.0,52,-99.99,,,0.02,Acu-Link.com,2013-03-06 20:13:00,
2013-03-06 15:28:00,47.1,30.9,29.62,SSE,157,4.7,-999.0,53,-99.99,,,0.02,Acu-Link.com,2013-03-06 20:28:00,
2013-03-06 15:43:00,46.8,31.0,29.63,WSW,247,6.3,-999.0,54,-99.99,,,0.02,Acu-Link.com,2013-03-06 20:43:00,
2013-03-06 15:58:00,46.6,31.3,29.64,SSE,157,5.3,-999.0,55,-99.99,,,0.02,Acu-Link.com,2013-03-06 20:58:00,
2013-03-06 16:13:00,46.8,31.5,29.65,SSE,157,4.7,-999.0,55,-99.99,,,0.02,Acu-Link.com,2013-03-06 21:13:00,
2013-03-06 16:29:00,46.6,31.3,29.67,ESE,112,12.5,-999.0,55,-99.99,,,0.02,Acu-Link.com,2013-03-06 21:29:00,
2013-03-06 16:44:00,46.8,31.9,29.68,ESE,112,6.8,-999.0,56,-99.99,,,0.02,Acu-Link.com,2013-03-06 21:44:00,
2013-03-06 16:59:00,46.0,33.3,29.70,SSE,157,13.5,-999.0,61,-99.99,,,0.02,Acu-Link.com,2013-03-06 21:59:00,
2013-03-06 17:14:00,45.5,34.0,29.72,ESE,112,6.8,-999.0,64,-99.99,,,0.02,Acu-Link.com,2013-03-06 22:14:00,
2013-03-06 17:30:00,45.5,34.4,29.73,ESE,112,10.4,-999.0,65,-99.99,,,0.02,Acu-Link.com,2013-03-06 22:30:00,
2013-03-06 17:45:00,45.3,34.2,29.74,East,90,6.8,-999.0,65,-99.99,,,0.02,Acu-Link.com,2013-03-06 22:45:00,
2013-03-06 18:00:00,45.3,33.5,29.75,ESE,112,6.3,-999.0,63,-99.99,,,0.02,Acu-Link.com,2013-03-06 23:00:00,
2013-03-06 18:15:00,45.3,32.7,29.76,South,180,7.8,-999.0,61,-99.99,,,0.02,Acu-Link.com,2013-03-06 23:15:00,
2013-03-06 18:31:00,45.5,32.0,29.77,NW,315,6.3,-999.0,59,-99.99,,,0.02,Acu-Link.com,2013-03-06 23:31:00,
2013-03-06 18:46:00,45.3,31.4,29.79,SW,225,5.3,-999.0,58,-99.99,,,0.02,Acu-Link.com,2013-03-06 23:46:00,
2013-03-06 19:01:00,45.0,31.1,29.79,SSW,202,4.7,-999.0,58,-99.99,,,0.02,Acu-Link.com,2013-03-07 00:01:00,
2013-03-06 19:16:00,44.4,30.6,29.81,SW,225,9.4,-999.0,58,-99.99,,,0.02,Acu-Link.com,2013-03-07 00:16:00,
2013-03-06 19:31:00,44.2,30.8,29.82,West,270,9.4,-999.0,59,-99.99,,,0.02,Acu-Link.com,2013-03-07 00:31:00,
2013-03-06 19:46:00,43.9,30.5,29.82,WSW,247,5.8,-999.0,59,-99.99,,,0.02,Acu-Link.com,2013-03-07 00:46:00,
2013-03-06 20:01:00,43.0,30.5,29.82,West,270,3.7,-999.0,61,-99.99,,,0.02,Acu-Link.com,2013-03-07 01:01:00,
2013-03-06 20:16:00,42.8,30.3,29.83,West,270,5.3,-999.0,61,-99.99,,,0.02,Acu-Link.com,2013-03-07 01:16:00,
2013-03-06 20:32:00,42.1,30.4,29.85,South,180,5.8,-999.0,63,-99.99,,,0.02,Acu-Link.com,2013-03-07 01:32:00,
2013-03-06 20:47:00,42.3,30.6,29.85,SW,225,4.2,-999.0,63,-99.99,,,0.02,Acu-Link.com,2013-03-07 01:47:00,
2013-03-06 21:02:00,41.7,30.4,29.85,SW,225,3.7,-999.0,64,-99.99,,,0.02,Acu-Link.com,2013-03-07 02:02:00,
2013-03-06 21:18:00,41.4,30.5,29.86,NW,315,2.7,-999.0,65,-99.99,,,0.02,Acu-Link.com,2013-03-07 02:18:00,
2013-03-06 21:33:00,41.5,29.9,29.87,West,270,3.7,-999.0,63,-99.99,,,0.02,Acu-Link.com,2013-03-07 02:33:00,
2013-03-06 21:48:00,41.5,30.2,29.87,SSW,202,3.7,-999.0,64,-99.99,,,0.02,Acu-Link.com,2013-03-07 02:48:00,
2013-03-06 22:03:00,41.0,30.2,29.87,NW,315,4.2,-999.0,65,-99.99,,,0.02,Acu-Link.com,2013-03-07 03:03:00,
2013-03-06 22:18:00,40.1,29.7,29.87,SW,225,4.2,-999.0,66,-99.99,,,0.02,Acu-Link.com,2013-03-07 03:18:00,
2013-03-06 22:33:00,39.4,29.7,29.88,SW,225,3.2,-999.0,68,-99.99,,,0.02,Acu-Link.com,2013-03-07 03:33:00,
2013-03-06 22:48:00,38.8,29.2,29.88,WNW,292,4.7,-999.0,68,-99.99,,,0.02,Acu-Link.com,2013-03-07 03:48:00,
2013-03-06 23:03:00,38.8,29.2,29.89,West,270,5.3,-999.0,68,-99.99,,,0.02,Acu-Link.com,2013-03-07 04:03:00,
2013-03-06 23:18:00,38.7,29.4,29.89,WSW,247,3.2,-999.0,69,-99.99,,,0.02,Acu-Link.com,2013-03-07 04:18:00,
2013-03-06 23:34:00,38.5,29.6,29.89,SSW,202,7.8,-999.0,70,-99.99,,,0.02,Acu-Link.com,2013-03-07 04:34:00,
2013-03-06 23:49:00,38.3,29.4,29.90,SSW,202,3.7,-999.0,70,-99.99,,,0.02,Acu-Link.com,2013-03-07 04:49:00,